Weather History for Abbeville, LA

Change the Weather History Date:

Monday, December 17, 2012

  Actual Average (KARA) Record (KARA)
Temperature  
Mean Temperature 60 °F 54 °F  
Max Temperature 70 °F 64 °F 81 °F (1956)
Min Temperature 50 °F 44 °F 26 °F (1963)
Degree Days  
Heating Degree Days 5 12  
Month to date heating degree days 179  
Since 1 July heating degree days 374  
Cooling Degree Days 0 1  
Month to date cooling degree days 17  
Year to date cooling degree days 2809  
Growing Degree Days 10 (Base 50)    
Moisture  
Dew Point 58 °F    
Average Humidity 86    
Maximum Humidity 100    
Minimum Humidity 52    
Precipitation  
Precipitation 0.00 in 0.17 in 2.80 in (2009)
Month to date precipitation 3.02  
Year to date precipitation 57.71  
Sea Level Pressure  
Sea Level Pressure 29.85 in    
Wind  
Wind Speed 4 mph (West)    
Max Wind Speed 14 mph    
Max Gust Speed 23 mph    
Visibility 9 miles    
Events Fog , Rain    
T = Trace of Precipitation, MM = Missing Value Source: NWS Daily Summary

Daily Weather History Graph

Daily Weather History Graph

Search for Another Location

Airport:

Trip Planner

Search our weather history database for the weather conditions in past years. The results will help you decide how hot, cold, wet, or windy it might be!

Date:

Astronomy

Dec. 17, 2012 Rise Set
Actual Time 6:58 AM CST 5:11 PM CST
Civil Twilight 6:31 AM CST 5:37 PM CST
Nautical Twilight 6:01 AM CST 6:07 PM CST
Astronomical Twilight 5:32 AM CST 6:36 PM CST
Moon 10:24 AM CST (12/17) 10:13 PM CST (12/17)
Length of Visible Light 11h 06m
Length of Day
10h 13m
Waxing Crescent, 25% of the Moon is Illuminated
Dec 17
Waxing Crescent
Dec 19
First Quarter
Dec 28
Full
Jan 4
Last Quarter
Jan 11
New

Hourly Weather History & Observations

Time (CST) Temp. Dew Point Humidity Pressure Visibility Wind Dir Wind Speed Gust Speed Precip Events Conditions
12:15 AM 65.3 °F 64.6 °F 98% 29.81 in 10.0 mi Calm Calm - N/A   Overcast
12:55 AM 66.0 °F 65.5 °F 98% 29.80 in 10.0 mi SSE 9.2 mph - N/A Rain Rain
1:15 AM 68.2 °F 66.6 °F 95% 29.82 in 10.0 mi SSW 5.8 mph 23.0 mph N/A Rain Light Rain
1:35 AM 66.6 °F 66.4 °F 99% 29.81 in 10.0 mi SSE 3.5 mph - N/A   Overcast
1:55 AM 66.4 °F 66.4 °F 100% 29.81 in 10.0 mi South 3.5 mph - N/A   Overcast
2:15 AM 66.4 °F 66.4 °F 100% 29.81 in 10.0 mi SSE 3.5 mph - N/A   Overcast
2:35 AM 66.2 °F 66.2 °F 100% 29.80 in 10.0 mi SE 4.6 mph - N/A   Overcast
2:55 AM 66.2 °F 66.2 °F 100% 29.79 in 10.0 mi Calm Calm - N/A   Overcast
3:15 AM 66.4 °F 66.4 °F 100% 29.80 in 10.0 mi Calm Calm - N/A   Overcast
3:55 AM 66.6 °F 66.6 °F 100% 29.80 in 10.0 mi Calm Calm - N/A   Overcast
4:15 AM 66.6 °F 66.6 °F 100% 29.80 in 10.0 mi NNW 3.5 mph - N/A   Overcast
4:35 AM 66.2 °F 66.2 °F 100% 29.80 in 10.0 mi NNW 4.6 mph - N/A   Overcast
4:55 AM 66.0 °F 66.0 °F 100% 29.82 in 10.0 mi NW 3.5 mph - N/A   Overcast
5:15 AM 65.8 °F 65.8 °F 100% 29.82 in 10.0 mi Calm Calm - N/A   Overcast
5:35 AM 65.3 °F 65.3 °F 100% 29.82 in 10.0 mi NW 3.5 mph - N/A   Overcast
5:55 AM 65.3 °F 65.3 °F 100% 29.83 in 10.0 mi Calm Calm - N/A   Overcast
6:15 AM 64.8 °F 64.8 °F 100% 29.83 in 10.0 mi Calm Calm - N/A   Overcast
6:35 AM 64.0 °F 64.0 °F 100% 29.82 in 7.0 mi NNW 4.6 mph - N/A   Mostly Cloudy
6:55 AM 63.7 °F 63.7 °F 100% 29.83 in 5.0 mi Calm Calm - N/A   Clear
7:15 AM 62.6 °F 62.6 °F 100% 29.83 in 1.8 mi WNW 4.6 mph - N/A   Mist
7:35 AM 63.3 °F 63.3 °F 100% 29.83 in 3.0 mi NW 3.5 mph - N/A   Clear
7:55 AM 62.8 °F 62.8 °F 100% 29.83 in 0.5 mi WNW 3.5 mph - N/A Fog Fog
8:15 AM 63.1 °F 63.1 °F 100% 29.83 in 3.0 mi Calm Calm - N/A   Clear
8:35 AM 63.5 °F 63.5 °F 100% 29.83 in 4.0 mi Calm Calm - N/A   Clear
8:55 AM 64.9 °F 64.9 °F 100% 29.85 in 10.0 mi WSW 3.5 mph - N/A   Clear
9:15 AM 65.3 °F 65.3 °F 100% 29.85 in 10.0 mi West 8.1 mph - N/A   Clear
9:35 AM 65.3 °F 65.3 °F 100% 29.86 in 10.0 mi West 10.4 mph - N/A   Clear
9:55 AM 65.8 °F 64.4 °F 95% 29.87 in 10.0 mi West 9.2 mph - N/A   Clear
10:15 AM 66.6 °F 63.5 °F 90% 29.86 in 10.0 mi West 6.9 mph - N/A   Clear
10:35 AM 66.6 °F 61.7 °F 84% 29.86 in 10.0 mi West 9.2 mph - N/A   Clear
10:55 AM 67.1 °F 62.1 °F 84% 29.86 in 10.0 mi West 8.1 mph - N/A   Clear
11:15 AM 67.5 °F 61.0 °F 80% 29.86 in 10.0 mi West 11.5 mph - N/A   Clear
11:55 AM 68.4 °F 56.8 °F 67% 29.85 in 10.0 mi WNW 12.7 mph 17.3 mph N/A   Clear
12:15 PM 68.0 °F 55.2 °F 64% 29.85 in 10.0 mi WNW 10.4 mph - N/A   Clear
12:35 PM 68.7 °F 54.1 °F 60% 29.84 in 10.0 mi WNW 13.8 mph - N/A   Clear
12:55 PM 68.0 °F 51.8 °F 56% 29.83 in 10.0 mi WNW 10.4 mph - N/A   Clear
1:15 PM 67.1 °F 50.5 °F 55% 29.83 in 10.0 mi WNW 9.2 mph - N/A   Clear
1:35 PM 66.6 °F 53.4 °F 63% 29.82 in 10.0 mi West 4.6 mph - N/A   Clear
1:55 PM 66.4 °F 52.3 °F 61% 29.81 in 10.0 mi West 4.6 mph - N/A   Clear
2:15 PM 69.6 °F 52.2 °F 54% 29.81 in 10.0 mi WSW 6.9 mph - N/A   Clear
2:35 PM 70.9 °F 52.7 °F 53% 29.81 in 10.0 mi West 9.2 mph - N/A   Clear
2:55 PM 70.9 °F 52.7 °F 53% 29.82 in 10.0 mi West 5.8 mph - N/A   Clear
3:15 PM 70.7 °F 52.3 °F 52% 29.82 in 10.0 mi West 8.1 mph - N/A   Clear
3:35 PM 70.5 °F 52.7 °F 53% 29.82 in 10.0 mi West 10.4 mph - N/A   Clear
3:55 PM 70.0 °F 52.5 °F 54% 29.82 in 10.0 mi West 6.9 mph - N/A   Clear
6:15 PM 59.4 °F 53.8 °F 82% 29.86 in 10.0 mi WSW 4.6 mph - N/A   Clear
6:35 PM 59.9 °F 52.3 °F 76% 29.87 in 10.0 mi WSW 4.6 mph - N/A   Clear
6:55 PM 58.8 °F 51.4 °F 76% 29.87 in 10.0 mi WSW 4.6 mph - N/A   Clear
7:15 PM 58.5 °F 51.1 °F 76% 29.88 in 10.0 mi WSW 4.6 mph - N/A   Clear
7:35 PM 56.8 °F 50.2 °F 78% 29.88 in 10.0 mi Calm Calm - N/A   Clear
7:55 PM 56.1 °F 50.9 °F 83% 29.89 in 10.0 mi SW 3.5 mph - N/A   Clear
8:15 PM 55.9 °F 52.0 °F 87% 29.90 in 10.0 mi WSW 3.5 mph - N/A   Clear
8:35 PM 55.4 °F 51.8 °F 88% 29.90 in 10.0 mi Calm Calm - N/A   Clear
8:55 PM 55.2 °F 53.6 °F 94% 29.90 in 10.0 mi Calm Calm - N/A   Clear
9:15 PM 55.0 °F 53.1 °F 93% 29.91 in 10.0 mi Calm Calm - N/A   Clear
9:35 PM 52.7 °F 52.3 °F 99% 29.92 in 10.0 mi West 3.5 mph - N/A   Clear
9:55 PM 51.3 °F 51.3 °F 100% 29.92 in 10.0 mi WNW 4.6 mph - N/A   Clear
10:15 PM 50.2 °F 50.0 °F 99% 29.93 in 10.0 mi West 4.6 mph - N/A   Clear
10:35 PM 50.7 °F 50.0 °F 97% 29.94 in 10.0 mi West 8.1 mph - N/A   Clear
10:55 PM 51.8 °F 48.7 °F 89% 29.95 in 10.0 mi WNW 6.9 mph - N/A   Clear
11:15 PM 51.1 °F 48.2 °F 90% 29.95 in 10.0 mi NW 5.8 mph - N/A   Clear
11:35 PM 50.9 °F 46.4 °F 85% 29.95 in 10.0 mi WNW 3.5 mph - N/A   Clear
11:55 PM 51.8 °F 46.6 °F 82% 29.95 in 10.0 mi Calm Calm - N/A   Clear